Time,TemperatureF,DewpointF,PressureIn,WindDirection,WindDirectionDegrees,WindSpeedMPH,WindSpeedGustMPH,Humidity,HourlyPrecipIn,Conditions,Clouds,dailyrainin,SoftwareType,DateUTC
2013-05-10 00:00:00,52.9,41.0,30.50,East,92,0.0,0.0,63,0.00,,,-99.99,wx200d/1.3,2013-05-10 07:00:00,
2013-05-10 00:15:00,53.1,41.0,30.50,East,96,0.0,0.0,64,0.00,,,-99.99,wx200d/1.3,2013-05-10 07:15:00,
2013-05-10 00:30:00,52.9,43.0,30.50,WNW,283,3.1,3.1,66,0.00,,,-99.99,wx200d/1.3,2013-05-10 07:30:00,
2013-05-10 00:45:00,52.7,43.0,30.50,East,87,2.2,3.1,66,0.00,,,-99.99,wx200d/1.3,2013-05-10 07:45:00,
2013-05-10 01:00:00,52.5,41.0,30.50,WSW,255,0.0,2.2,66,0.00,,,-99.99,wx200d/1.3,2013-05-10 08:00:00,
2013-05-10 01:15:00,52.3,41.0,30.50,West,280,0.0,0.0,67,0.00,,,-99.99,wx200d/1.3,2013-05-10 08:15:00,
2013-05-10 01:30:00,52.5,43.0,30.47,WNW,294,0.0,0.0,69,0.00,,,-99.99,wx200d/1.3,2013-05-10 08:30:00,
2013-05-10 01:45:00,52.5,43.0,30.47,West,272,0.0,0.0,69,0.00,,,-99.99,wx200d/1.3,2013-05-10 08:45:00,
2013-05-10 02:00:00,52.3,43.0,30.47,West,269,0.0,2.7,70,0.00,,,-99.99,wx200d/1.3,2013-05-10 09:00:00,
2013-05-10 02:15:00,52.3,43.0,30.47,East,87,0.0,2.7,72,0.00,,,-99.99,wx200d/1.3,2013-05-10 09:15:00,
2013-05-10 02:30:00,52.3,43.0,30.47,East,92,0.0,3.1,73,0.00,,,-99.99,wx200d/1.3,2013-05-10 09:30:00,
2013-05-10 02:45:00,52.3,45.0,30.47,West,272,0.0,0.0,74,0.00,,,-99.99,wx200d/1.3,2013-05-10 09:45:00,
2013-05-10 03:00:00,52.2,45.0,30.47,West,279,0.0,0.0,75,0.00,,,-99.99,wx200d/1.3,2013-05-10 10:00:00,
2013-05-10 03:15:00,52.2,45.0,30.47,WNW,285,0.0,0.0,76,0.00,,,-99.99,wx200d/1.3,2013-05-10 10:15:00,
2013-05-10 03:30:00,52.2,45.0,30.47,East,96,0.0,3.1,77,0.00,,,-99.99,wx200d/1.3,2013-05-10 10:30:00,
2013-05-10 03:45:00,52.2,45.0,30.47,West,270,0.0,2.7,78,0.00,,,-99.99,wx200d/1.3,2013-05-10 10:45:00,
2013-05-10 04:00:00,52.0,46.0,30.45,WNW,296,0.0,0.0,79,0.00,,,-99.99,wx200d/1.3,2013-05-10 11:00:00,
2013-05-10 04:15:00,52.2,46.0,30.45,WNW,286,0.0,0.0,80,0.00,,,-99.99,wx200d/1.3,2013-05-10 11:15:00,
2013-05-10 04:30:00,51.8,46.0,30.45,WNW,289,0.0,0.0,81,0.00,,,-99.99,wx200d/1.3,2013-05-10 11:30:00,
2013-05-10 04:45:00,52.2,46.0,30.45,East,89,0.0,2.7,82,0.00,,,-99.99,wx200d/1.3,2013-05-10 11:45:00,
2013-05-10 05:00:00,52.2,46.0,30.45,West,278,0.0,0.0,82,0.00,,,-99.99,wx200d/1.3,2013-05-10 12:00:00,
2013-05-10 05:15:00,52.2,46.0,30.45,West,260,0.0,0.0,82,0.00,,,-99.99,wx200d/1.3,2013-05-10 12:15:00,
2013-05-10 05:30:00,52.2,46.0,30.45,West,266,0.0,3.6,82,0.00,,,-99.99,wx200d/1.3,2013-05-10 12:30:00,
2013-05-10 05:45:00,52.2,46.0,30.45,West,266,0.0,0.0,82,0.00,,,-99.99,wx200d/1.3,2013-05-10 12:45:00,
2013-05-10 06:00:00,52.2,46.0,30.45,West,264,0.0,0.0,82,0.00,,,-99.99,wx200d/1.3,2013-05-10 13:00:00,
2013-05-10 06:15:00,52.3,46.0,30.47,West,281,0.0,0.0,82,0.00,,,-99.99,wx200d/1.3,2013-05-10 13:15:00,
2013-05-10 06:30:00,52.2,46.0,30.45,West,271,2.2,0.0,81,0.00,,,-99.99,wx200d/1.3,2013-05-10 13:30:00,
2013-05-10 06:45:00,52.2,46.0,30.47,SW,224,0.0,0.0,82,0.00,,,-99.99,wx200d/1.3,2013-05-10 13:45:00,
2013-05-10 07:00:00,52.2,46.0,30.47,West,266,0.0,2.7,83,0.00,,,-99.99,wx200d/1.3,2013-05-10 14:00:00,
2013-05-10 07:15:00,52.2,46.0,30.47,West,281,0.0,0.0,84,0.00,,,-99.99,wx200d/1.3,2013-05-10 14:15:00,
2013-05-10 07:30:00,52.5,46.0,30.47,NW,310,0.0,0.0,84,0.00,,,-99.99,wx200d/1.3,2013-05-10 14:30:00,
2013-05-10 07:45:00,52.9,48.0,30.47,West,271,0.0,2.7,84,0.00,,,-99.99,wx200d/1.3,2013-05-10 14:45:00,
2013-05-10 08:00:00,53.4,48.0,30.47,West,272,2.2,0.0,82,0.00,,,-99.99,wx200d/1.3,2013-05-10 15:00:00,
2013-05-10 08:15:00,54.9,50.0,30.47,West,281,0.0,0.0,80,0.00,,,-99.99,wx200d/1.3,2013-05-10 15:15:00,
2013-05-10 08:30:00,56.3,48.0,30.47,West,268,0.0,0.0,74,0.00,,,-99.99,wx200d/1.3,2013-05-10 15:30:00,
2013-05-10 08:45:00,57.0,45.0,30.47,West,273,0.0,0.0,63,0.00,,,-99.99,wx200d/1.3,2013-05-10 15:45:00,
2013-05-10 09:00:00,58.1,46.0,30.47,West,273,0.0,0.0,61,0.00,,,-99.99,wx200d/1.3,2013-05-10 16:00:00,
2013-05-10 09:15:00,59.0,41.0,30.50,West,281,0.0,0.0,52,0.00,,,-99.99,wx200d/1.3,2013-05-10 16:15:00,
2013-05-10 09:30:00,60.3,39.0,30.50,WNW,285,0.0,0.0,46,0.00,,,-99.99,wx200d/1.3,2013-05-10 16:30:00,
2013-05-10 09:45:00,62.4,37.0,30.50,WNW,286,0.0,0.0,40,0.00,,,-99.99,wx200d/1.3,2013-05-10 16:45:00,
2013-05-10 10:00:00,63.0,36.0,30.50,West,280,0.0,3.6,36,0.00,,,-99.99,wx200d/1.3,2013-05-10 17:00:00,
2013-05-10 10:15:00,63.7,36.0,30.50,WNW,283,0.0,0.0,35,0.00,,,-99.99,wx200d/1.3,2013-05-10 17:15:00,
2013-05-10 10:30:00,64.4,34.0,30.50,East,86,2.2,0.0,33,0.00,,,-99.99,wx200d/1.3,2013-05-10 17:30:00,
2013-05-10 10:45:00,64.9,34.0,30.50,ENE,60,0.0,0.0,33,0.00,,,-99.99,wx200d/1.3,2013-05-10 17:45:00,
2013-05-10 11:00:00,64.2,34.0,30.50,West,266,0.0,2.7,33,0.00,,,-99.99,wx200d/1.3,2013-05-10 18:00:00,
2013-05-10 11:15:00,64.8,34.0,30.53,ENE,78,0.0,0.0,32,0.00,,,-99.99,wx200d/1.3,2013-05-10 18:15:00,
2013-05-10 11:30:00,65.1,32.0,30.50,West,281,0.0,0.0,30,0.00,,,-99.99,wx200d/1.3,2013-05-10 18:30:00,
2013-05-10 11:45:00,65.1,32.0,30.53,West,274,0.0,2.7,29,0.00,,,-99.99,wx200d/1.3,2013-05-10 18:45:00,
2013-05-10 12:00:00,65.1,32.0,30.50,West,267,0.0,2.7,29,0.00,,,-99.99,wx200d/1.3,2013-05-10 19:00:00,
2013-05-10 12:15:00,63.5,34.0,30.50,NNE,13,0.0,2.7,33,0.00,,,-99.99,wx200d/1.3,2013-05-10 19:15:00,
2013-05-10 12:30:00,64.8,32.0,30.50,West,261,3.1,3.1,30,0.00,,,-99.99,wx200d/1.3,2013-05-10 19:30:00,
2013-05-10 12:45:00,66.0,34.0,30.50,West,277,0.0,2.2,29,0.00,,,-99.99,wx200d/1.3,2013-05-10 19:45:00,
2013-05-10 13:00:00,66.7,32.0,30.50,West,276,0.0,2.7,27,0.00,,,-99.99,wx200d/1.3,2013-05-10 20:00:00,
2013-05-10 13:15:00,67.5,32.0,30.50,East,98,2.2,3.1,26,0.00,,,-99.99,wx200d/1.3,2013-05-10 20:15:00,
2013-05-10 13:30:00,67.5,32.0,30.50,NW,304,2.7,2.7,26,0.00,,,-99.99,wx200d/1.3,2013-05-10 20:30:00,
2013-05-10 13:45:00,65.8,32.0,30.50,WSW,257,2.2,2.7,27,0.00,,,-99.99,wx200d/1.3,2013-05-10 20:45:00,
2013-05-10 14:00:00,66.0,32.0,30.50,WNW,291,3.1,3.1,27,0.00,,,-99.99,wx200d/1.3,2013-05-10 21:00:00,
2013-05-10 14:15:00,66.0,32.0,30.47,West,266,2.2,2.2,27,0.00,,,-99.99,wx200d/1.3,2013-05-10 21:15:00,
2013-05-10 14:30:00,65.1,32.0,30.47,West,277,2.7,2.7,28,0.00,,,-99.99,wx200d/1.3,2013-05-10 21:30:00,
2013-05-10 14:45:00,66.7,32.0,30.50,NW,319,2.2,0.0,27,0.00,,,-99.99,wx200d/1.3,2013-05-10 21:45:00,
2013-05-10 15:00:00,64.6,32.0,30.50,ENE,69,3.6,3.6,29,0.00,,,-99.99,wx200d/1.3,2013-05-10 22:00:00,
2013-05-10 15:15:00,64.8,32.0,30.50,West,276,2.2,2.2,30,0.00,,,-99.99,wx200d/1.3,2013-05-10 22:15:00,
2013-05-10 15:30:00,63.1,34.0,30.47,West,269,2.7,3.1,33,0.00,,,-99.99,wx200d/1.3,2013-05-10 22:30:00,
2013-05-10 15:45:00,63.5,34.0,30.47,West,272,2.7,2.7,33,0.00,,,-99.99,wx200d/1.3,2013-05-10 22:45:00,
2013-05-10 16:00:00,63.7,34.0,30.45,East,96,2.7,2.7,33,0.00,,,-99.99,wx200d/1.3,2013-05-10 23:00:00,
2013-05-10 16:15:00,64.2,34.0,30.47,WSW,257,2.2,2.7,32,0.00,,,-99.99,wx200d/1.3,2013-05-10 23:15:00,
2013-05-10 16:30:00,63.5,34.0,30.47,WSW,238,2.7,3.6,33,0.00,,,-99.99,wx200d/1.3,2013-05-10 23:30:00,
2013-05-10 16:45:00,62.2,34.0,30.45,East,89,2.7,3.6,35,0.00,,,-99.99,wx200d/1.3,2013-05-10 23:45:00,
2013-05-10 17:00:00,62.2,34.0,30.45,NW,310,3.6,3.6,34,0.00,,,-99.99,wx200d/1.3,2013-05-11 00:00:00,
2013-05-10 17:15:00,62.8,34.0,30.45,WNW,288,3.1,3.1,34,0.00,,,-99.99,wx200d/1.3,2013-05-11 00:15:00,
2013-05-10 17:30:00,62.2,34.0,30.45,WNW,295,0.0,2.7,35,0.00,,,-99.99,wx200d/1.3,2013-05-11 00:30:00,
2013-05-10 17:45:00,62.6,34.0,30.45,ESE,109,0.0,2.2,34,0.00,,,-99.99,wx200d/1.3,2013-05-11 00:45:00,
2013-05-10 18:00:00,61.2,34.0,30.45,West,267,2.7,3.1,35,0.00,,,-99.99,wx200d/1.3,2013-05-11 01:00:00,
2013-05-10 18:15:00,59.7,34.0,30.45,NW,313,2.2,2.7,38,0.00,,,-99.99,wx200d/1.3,2013-05-11 01:15:00,
2013-05-10 18:30:00,58.3,37.0,30.45,WSW,258,2.2,0.0,44,0.00,,,-99.99,wx200d/1.3,2013-05-11 01:30:00,
2013-05-10 18:45:00,57.2,37.0,30.45,WNW,294,2.2,3.1,48,0.00,,,-99.99,wx200d/1.3,2013-05-11 01:45:00,
2013-05-10 19:00:00,56.7,41.0,30.45,East,83,3.1,3.1,55,0.00,,,-99.99,wx200d/1.3,2013-05-11 02:00:00,
2013-05-10 19:15:00,56.1,41.0,30.45,WNW,290,2.2,0.0,58,0.00,,,-99.99,wx200d/1.3,2013-05-11 02:15:00,
2013-05-10 19:30:00,55.6,41.0,30.45,West,272,4.0,0.0,59,0.00,,,-99.99,wx200d/1.3,2013-05-11 02:30:00,
2013-05-10 19:45:00,55.0,43.0,30.45,WNW,292,0.0,3.6,62,0.00,,,-99.99,wx200d/1.3,2013-05-11 02:45:00,
2013-05-10 20:00:00,54.7,45.0,30.45,East,80,0.0,2.2,65,0.00,,,-99.99,wx200d/1.3,2013-05-11 03:00:00,
2013-05-10 20:15:00,54.5,45.0,30.45,WNW,283,2.2,0.0,67,0.00,,,-99.99,wx200d/1.3,2013-05-11 03:15:00,
2013-05-10 20:30:00,54.5,45.0,30.47,WNW,296,0.0,0.0,68,0.00,,,-99.99,wx200d/1.3,2013-05-11 03:30:00,
2013-05-10 20:45:00,54.5,45.0,30.45,WNW,282,0.0,0.0,68,0.00,,,-99.99,wx200d/1.3,2013-05-11 03:45:00,
2013-05-10 21:00:00,54.1,45.0,30.47,NNW,331,0.0,0.0,69,0.00,,,-99.99,wx200d/1.3,2013-05-11 04:00:00,
2013-05-10 21:15:00,54.1,45.0,30.47,West,265,0.0,0.0,69,0.00,,,-99.99,wx200d/1.3,2013-05-11 04:15:00,
2013-05-10 21:30:00,54.1,45.0,30.47,West,271,0.0,0.0,70,0.00,,,-99.99,wx200d/1.3,2013-05-11 04:30:00,
2013-05-10 21:45:00,54.0,45.0,30.47,WNW,283,2.2,0.0,70,0.00,,,-99.99,wx200d/1.3,2013-05-11 04:45:00,
2013-05-10 22:00:00,53.8,45.0,30.47,East,97,0.0,0.0,70,0.00,,,-99.99,wx200d/1.3,2013-05-11 05:00:00,
2013-05-10 22:15:00,53.8,45.0,30.47,West,270,0.0,0.0,71,0.00,,,-99.99,wx200d/1.3,2013-05-11 05:15:00,
2013-05-10 22:30:00,53.8,45.0,30.47,West,272,0.0,0.0,71,0.00,,,-99.99,wx200d/1.3,2013-05-11 05:30:00,
2013-05-10 22:45:00,53.8,45.0,30.47,West,272,0.0,0.0,71,0.00,,,-99.99,wx200d/1.3,2013-05-11 05:45:00,
2013-05-10 23:00:00,53.8,45.0,30.47,West,272,0.0,0.0,71,0.00,,,-99.99,wx200d/1.3,2013-05-11 06:00:00,
2013-05-10 23:15:00,53.4,45.0,30.47,East,79,0.0,0.0,72,0.00,,,-99.99,wx200d/1.3,2013-05-11 06:15:00,
2013-05-10 23:30:00,53.4,45.0,30.47,WSW,257,0.0,0.0,73,0.00,,,-99.99,wx200d/1.3,2013-05-11 06:30:00,
2013-05-10 23:45:00,53.4,46.0,30.47,West,276,0.0,0.0,74,0.00,,,-99.99,wx200d/1.3,2013-05-11 06:45:00,